START_TIME,STEP,MOV.,M15,t_acc.,M20,t_acc.
1979-07-01 00:00:44.900 ,0,0,0.,24.0,0.,24.0
1979-07-01 00:01:08.900 ,1,1,0.,24.0,0.,24.0
1979-07-01 00:01:32.900 ,1,0,0.,24.0,0.,24.0
1979-07-01 00:01:56.900 ,2,1,0.,24.0,0.,24.0
1979-07-01 00:02:20.900 ,2,0,0.,24.0,0.,24.0
1979-07-01 00:02:44.900 ,3,1,0.,24.0,0.,24.0
1979-07-01 00:03:08.900 ,3,0,0.,24.0,0.,24.0
1979-07-01 00:03:32.900 ,4,1,0.,24.0,0.,24.0
1979-07-01 00:03:56.900 ,4,0,0.,24.0,0.,24.0
1979-07-01 00:04:20.900 ,5,1,0.,24.0,0.,24.0
1979-07-01 00:04:44.900 ,5,0,0.,24.0,0.,24.0
1979-07-01 00:05:08.900 ,6,1,0.,24.0,0.,24.0
1979-07-01 00:05:32.900 ,6,0,0.,24.0,0.,24.0
1979-07-01 00:05:56.900 ,7,1,0.,24.0,0.,24.0
1979-07-01 00:06:20.900 ,7,0,0.,24.0,0.,24.0
1979-07-01 00:06:44.900 ,7,1,0.,24.0,0.,24.0
1979-07-01 00:07:08.900 ,7,0,0.,24.0,0.,24.0
1979-07-01 00:07:32.900 ,6,1,0.,24.0,0.,24.0
1979-07-01 00:07:56.900 ,6,0,0.,24.0,0.,24.0
1979-07-01 00:08:20.900 ,5,1,0.,24.0,0.,24.0
1979-07-01 00:08:44.900 ,0,0,0.,24.0,0.,24.0
1979-07-01 00:09:14.300 ,0,0,0.,24.0,0.,24.0
1979-07-01 00:09:32.900 ,0,0,0.,24.0,0.,24.0
1979-07-01 00:09:56.900 ,3,1,0.,24.0,0.,24.0
1979-07-01 00:10:20.900 ,3,0,0.,24.0,0.,24.0
1979-07-01 00:10:44.900 ,2,1,0.,24.0,0.,24.0
1979-07-01 00:11:08.900 ,2,0,0.,24.0,0.,24.0
1979-07-01 00:11:32.900 ,1,1,0.,24.0,0.,24.0
1979-07-01 00:11:56.900 ,1,0,0.,24.0,0.,24.0
1979-07-01 00:12:20.900 ,0,1,0.,24.0,0.,24.0
1979-07-01 00:12:44.900 ,0,0,0.,24.0,0.,24.0
1979-07-01 00:13:08.900 ,0,1,0.,24.0,0.,24.0
1979-07-01 00:13:32.900 ,0,0,0.,24.0,0.,24.0
1979-07-01 00:13:56.900 ,1,1,0.,24.0,0.,24.0
1979-07-01 00:14:20.900 ,1,0,0.,24.0,0.,24.0
1979-07-01 00:14:44.900 ,2,1,0.,24.0,0.,24.0
1979-07-01 00:15:08.900 ,2,0,0.,24.0,0.,24.0
1979-07-01 00:15:32.900 ,3,1,0.,24.0,0.,24.0
1979-07-01 00:15:56.900 ,3,0,0.,24.0,0.,24.0
1979-07-01 00:16:20.900 ,4,1,0.,24.0,0.,24.0
1979-07-01 00:16:44.900 ,4,0,0.,24.0,0.,24.0
1979-07-01 00:17:08.900 ,5,1,0.,24.0,0.,24.0
1979-07-01 00:17:32.900 ,5,0,0.,24.0,0.,24.0
1979-07-01 00:17:56.900 ,6,1,0.,24.0,0.,24.0
1979-07-01 00:18:20.900 ,6,0,0.,24.0,0.,24.0
1979-07-01 00:18:44.900 ,7,0,0.,24.0,0.,24.0
1979-07-01 00:19:08.900 ,7,0,0.,24.0,0.,24.0
1979-07-01 00:19:32.900 ,3,1,0.,24.0,0.,24.0
1979-07-01 00:19:56.900 ,0,1,0.,24.0,0.,24.0
1979-07-01 00:20:20.900 ,4,1,0.,24.0,0.,24.0
1979-07-01 00:20:44.900 ,7,1,0.,24.0,0.,24.0
1979-07-01 00:21:08.900 ,3,1,0.,24.0,0.,24.0
1979-07-01 00:21:32.900 ,0,1,0.,24.0,0.,24.0
1979-07-01 00:21:56.900 ,4,1,0.,24.0,0.,24.0
1979-07-01 00:22:20.900 ,7,1,0.,24.0,0.,24.0
1979-07-01 00:22:44.900 ,3,1,0.,24.0,0.,24.0
1979-07-01 00:23:08.900 ,0,1,0.,24.0,0.,24.0
1979-07-01 00:23:32.900 ,4,1,0.,24.0,0.,24.0
1979-07-01 00:23:56.900 ,7,1,0.,24.0,0.,24.0
1979-07-01 00:24:20.900 ,3,1,0.,24.0,0.,24.0
1979-07-01 00:24:44.900 ,0,1,0.,24.0,0.,24.0
1979-07-01 00:25:08.900 ,4,1,0.,24.0,0.,24.0
1979-07-01 00:25:32.900 ,7,1,0.,24.0,0.,24.0
1979-07-01 00:25:56.900 ,3,1,0.,24.0,0.,24.0
1979-07-01 00:26:20.900 ,0,1,0.,24.0,0.,24.0
1979-07-01 00:26:44.900 ,4,1,0.,24.0,0.,24.0
1979-07-01 00:27:08.900 ,7,1,0.,24.0,0.,24.0
1979-07-01 00:27:32.900 ,3,1,0.,24.0,0.,24.0
1979-07-01 00:27:56.900 ,0,1,0.,24.0,0.,24.0
1979-07-01 00:28:20.900 ,4,1,0.,24.0,0.,24.0
1979-07-01 00:28:44.900 ,7,1,0.,24.0,0.,24.0
1979-07-01 00:29:08.900 ,3,1,0.,24.0,0.,24.0
1979-07-01 00:29:32.900 ,0,1,0.,24.0,0.,24.0
1979-07-01 00:29:56.900 ,0,0,0.,24.0,0.,24.0
1979-07-01 00:30:20.900 ,0,0,0.,24.0,0.,24.0
1979-07-01 00:30:44.900 ,5,1,0.,24.0,0.,24.0
1979-07-01 00:31:08.900 ,5,0,0.,24.0,0.,24.0
1979-07-01 00:31:32.900 ,4,1,0.,24.0,0.,24.0
1979-07-01 00:31:56.900 ,4,0,0.,24.0,0.,24.0
1979-07-01 00:32:20.900 ,3,1,0.,24.0,0.,24.0
1979-07-01 00:32:44.900 ,3,0,0.,24.0,0.,24.0
1979-07-01 00:33:08.900 ,2,1,0.,24.0,0.,24.0
1979-07-01 00:33:32.900 ,2,0,0.,24.0,0.,24.0
1979-07-01 00:33:56.900 ,1,1,0.,24.0,0.,24.0
1979-07-01 00:34:20.900 ,1,0,0.,24.0,0.,24.0
1979-07-01 00:34:44.900 ,0,1,0.,24.0,0.,24.0
1979-07-01 00:35:08.900 ,0,0,0.,24.0,0.,24.0
1979-07-01 00:35:32.900 ,0,1,0.,24.0,0.,24.0
1979-07-01 00:35:56.900 ,0,0,0.,24.0,0.,24.0
1979-07-01 00:36:20.900 ,1,1,0.,24.0,0.,24.0
1979-07-01 00:36:44.900 ,1,0,0.,24.0,0.,24.0
1979-07-01 00:37:08.900 ,2,1,0.,24.0,0.,24.0
1979-07-01 00:37:32.900 ,2,0,0.,24.0,0.,24.0
1979-07-01 00:37:56.900 ,3,1,0.,24.0,0.,24.0
1979-07-01 00:38:20.900 ,3,0,0.,24.0,0.,24.0
1979-07-01 00:38:44.900 ,4,1,0.,24.0,0.,24.0
1979-07-01 00:39:08.900 ,4,0,0.,24.0,0.,24.0
1979-07-01 00:39:32.900 ,5,1,0.,24.0,0.,24.0
1979-07-01 00:39:56.900 ,5,0,0.,24.0,0.,24.0
1979-07-01 00:40:20.900 ,6,1,0.,24.0,0.,24.0
1979-07-01 00:40:44.900 ,6,0,0.,24.0,0.,24.0
1979-07-01 00:41:08.900 ,7,1,0.,24.0,0.,24.0
1979-07-01 00:41:32.900 ,7,0,0.,24.0,0.,24.0
1979-07-01 00:41:56.900 ,7,1,0.,24.0,0.,24.0
1979-07-01 00:42:20.900 ,7,0,0.,24.0,0.,24.0
1979-07-01 00:42:44.900 ,6,1,0.,24.0,0.,24.0
1979-07-01 00:43:08.900 ,6,0,0.,24.0,0.,24.0
1979-07-01 00:43:32.900 ,5,1,0.,24.0,0.,24.0
1979-07-01 00:43:56.900 ,5,0,0.,24.0,0.,24.0
1979-07-01 00:44:20.900 ,4,1,0.,24.0,0.,24.0
1979-07-01 00:44:44.900 ,4,0,0.,24.0,0.,24.0
1979-07-01 00:45:08.900 ,3,1,0.,24.0,0.,24.0
1979-07-01 00:45:32.900 ,3,0,0.,24.0,0.,24.0
1979-07-01 00:45:56.900 ,2,1,0.,24.0,0.,24.0
1979-07-01 00:46:20.900 ,2,0,0.,24.0,0.,24.0
1979-07-01 00:46:20.900 ,2,0,0.,24.0,0.,24.0
1979-07-01 00:46:44.900 ,1,1,0.,24.0,0.,24.0
1979-07-01 00:47:08.900 ,1,0,0.,24.0,0.,24.0
1979-07-01 00:47:32.900 ,0,1,0.,24.0,0.,24.0
1979-07-01 00:47:56.900 ,0,0,0.,24.0,0.,24.0
1979-07-01 00:48:20.900 ,0,1,0.,24.0,0.,24.0
1979-07-01 00:48:44.900 ,0,0,0.,24.0,0.,24.0
1979-07-01 00:49:08.900 ,1,1,0.,24.0,0.,24.0
1979-07-01 00:49:32.900 ,1,0,0.,24.0,0.,24.0
1979-07-01 00:49:56.900 ,2,1,0.,24.0,0.,24.0
1979-07-01 00:50:20.900 ,2,0,0.,24.0,0.,24.0
1979-07-01 00:50:44.900 ,3,1,0.,24.0,0.,24.0
1979-07-01 00:51:08.900 ,3,0,0.,24.0,0.,24.0
1979-07-01 00:51:32.900 ,4,1,0.,24.0,0.,24.0
1979-07-01 00:51:56.900 ,4,0,0.,24.0,0.,24.0
1979-07-01 00:52:20.900 ,5,1,0.,24.0,0.,24.0
1979-07-01 00:52:44.900 ,5,0,0.,24.0,0.,24.0
1979-07-01 00:53:08.900 ,6,1,0.,24.0,0.,24.0
1979-07-01 00:53:32.900 ,6,0,0.,24.0,0.,24.0
1979-07-01 00:53:56.900 ,7,1,0.,24.0,0.,24.0
1979-07-01 00:54:20.900 ,0,0,,0,,0
1979-07-01 00:54:35.300 ,0,0,0.,24.0,0.,24.0
1979-07-01 00:54:44.900 ,7,1,0.,24.0,0.,24.0
1979-07-01 00:55:08.900 ,7,0,0.,24.0,0.,24.0
1979-07-01 00:56:20.900 ,0,0,0.,24.0,0.,24.0
1979-07-01 00:56:44.900 ,0,0,0.,24.0,0.,24.0
1979-07-01 00:57:08.900 ,4,1,0.,24.0,0.,24.0
1979-07-01 00:57:32.900 ,4,0,0.,24.0,0.,24.0
1979-07-01 00:57:56.900 ,3,1,0.,24.0,0.,24.0
1979-07-01 00:58:20.900 ,3,0,0.,24.0,0.,24.0
1979-07-01 00:58:44.900 ,2,1,0.,24.0,0.,24.0
1979-07-01 00:59:08.900 ,2,0,0.,24.0,0.,24.0
1979-07-01 00:59:32.900 ,1,1,0.,24.0,0.,24.0
1979-07-01 00:59:56.900 ,1,0,0.,24.0,0.,24.0
1979-07-01 01:00:20.900 ,0,1,0.,24.0,0.,24.0
1979-07-01 01:01:08.900 ,0,0,0.,24.0,0.,24.0
1979-07-01 01:01:32.900 ,0,0,0.,24.0,0.,24.0
1979-07-01 01:01:56.900 ,1,1,0.,24.0,0.,24.0
1979-07-01 01:02:20.900 ,1,0,0.,24.0,0.,24.0
1979-07-01 01:02:44.900 ,2,1,0.,24.0,0.,24.0
1979-07-01 01:03:08.900 ,2,0,0.,24.0,0.,24.0
1979-07-01 01:03:32.900 ,3,1,0.,24.0,0.,24.0
1979-07-01 01:03:56.900 ,3,0,0.,24.0,0.,24.0
1979-07-01 01:04:20.900 ,4,1,0.,24.0,0.,24.0
1979-07-01 01:04:44.900 ,4,0,0.,24.0,0.,24.0
1979-07-01 01:05:08.900 ,5,1,0.,24.0,0.,24.0
1979-07-01 01:05:32.900 ,5,0,0.,24.0,0.,24.0
1979-07-01 01:05:56.900 ,6,1,0.,24.0,0.,24.0
1979-07-01 01:06:20.900 ,6,0,0.,24.0,0.,24.0
1979-07-01 01:06:44.900 ,7,0,0.,24.0,0.,24.0
1979-07-01 01:07:08.900 ,7,0,0.,24.0,0.,24.0
1979-07-01 01:07:32.900 ,3,1,0.,24.0,0.,24.0
1979-07-01 01:07:56.900 ,0,1,0.,24.0,0.,24.0
1979-07-01 01:08:20.900 ,4,1,0.,24.0,0.,24.0
1979-07-01 01:08:44.900 ,7,1,0.,24.0,0.,24.0
1979-07-01 01:09:08.900 ,3,1,0.,24.0,0.,24.0
1979-07-01 01:09:32.900 ,0,1,0.,24.0,0.,24.0
1979-07-01 01:09:56.900 ,4,1,0.,24.0,0.,24.0
1979-07-01 01:10:20.900 ,7,1,0.,24.0,0.,24.0
1979-07-01 01:10:44.900 ,3,1,0.,24.0,0.,24.0
1979-07-01 01:11:08.900 ,0,1,0.,24.0,0.,24.0
1979-07-01 01:11:32.900 ,4,1,0.,24.0,0.,24.0
1979-07-01 01:11:56.900 ,7,1,0.,24.0,0.,24.0
1979-07-01 01:12:20.900 ,3,1,0.,24.0,0.,24.0
1979-07-01 01:12:44.900 ,0,1,0.,24.0,0.,24.0
1979-07-01 01:13:08.900 ,4,1,0.,24.0,0.,24.0
1979-07-01 01:13:32.900 ,7,1,0.,24.0,0.,24.0
1979-07-01 01:13:56.900 ,3,1,0.,24.0,0.,24.0
1979-07-01 01:14:20.900 ,0,1,0.,24.0,0.,24.0
1979-07-01 01:14:44.900 ,4,1,0.,24.0,0.,24.0
1979-07-01 01:15:08.900 ,7,1,0.,24.0,1.,24.0
1979-07-01 01:15:32.900 ,3,1,0.,24.0,0.,24.0
1979-07-01 01:15:56.900 ,0,1,0.,24.0,0.,24.0
1979-07-01 01:16:20.900 ,4,1,0.,24.0,0.,24.0
1979-07-01 01:16:44.900 ,7,1,0.,24.0,0.,24.0
1979-07-01 01:17:08.900 ,3,1,0.,24.0,0.,24.0
1979-07-01 01:17:32.900 ,0,1,0.,24.0,0.,24.0
1979-07-01 01:17:56.900 ,0,0,0.,24.0,0.,24.0
1979-07-01 01:18:20.900 ,0,0,0.,24.0,0.,24.0
1979-07-01 01:18:44.900 ,5,1,0.,24.0,0.,24.0
1979-07-01 01:19:08.900 ,5,0,0.,24.0,0.,24.0
1979-07-01 01:19:32.900 ,4,1,0.,24.0,0.,24.0
1979-07-01 01:19:56.900 ,4,0,0.,24.0,0.,24.0
1979-07-01 01:20:20.900 ,3,1,0.,24.0,0.,24.0
1979-07-01 01:20:34.090 ,0,0,,0,,0
1979-07-01 01:20:44.900 ,0,0,,0,,0
1979-07-01 01:20:44.900 ,0,0,,0,,0
1979-07-01 01:29:56.900 ,0,0,0.,24.0,0.,24.0
1979-07-01 01:30:20.900 ,0,0,0.,24.0,0.,24.0
1979-07-01 01:30:44.890 ,6,1,0.,24.0,0.,24.0
1979-07-01 01:31:08.890 ,6,0,0.,24.0,0.,24.0
1979-07-01 01:31:32.890 ,5,1,0.,24.0,0.,24.0
1979-07-01 01:31:56.890 ,5,0,0.,24.0,0.,24.0
1979-07-01 01:32:20.890 ,4,1,0.,24.0,0.,24.0
1979-07-01 01:32:44.890 ,4,0,0.,24.0,0.,24.0
1979-07-01 01:33:08.890 ,3,1,0.,24.0,0.,24.0
1979-07-01 01:33:32.890 ,3,0,0.,24.0,0.,24.0
1979-07-01 01:33:56.890 ,2,1,0.,24.0,0.,24.0
1979-07-01 01:34:20.890 ,2,0,0.,24.0,0.,24.0
1979-07-01 01:34:44.890 ,1,1,0.,24.0,0.,24.0
1979-07-01 01:35:08.890 ,1,0,0.,24.0,0.,24.0
1979-07-01 01:35:32.890 ,0,1,0.,24.0,0.,24.0
1979-07-01 01:35:56.890 ,0,0,0.,24.0,0.,24.0
1979-07-01 01:36:20.890 ,0,1,0.,24.0,0.,24.0
1979-07-01 01:36:44.890 ,0,0,0.,24.0,0.,24.0
1979-07-01 01:37:08.890 ,1,1,0.,24.0,0.,24.0
1979-07-01 01:37:32.890 ,1,0,0.,24.0,0.,24.0
1979-07-01 01:37:56.890 ,2,1,0.,24.0,0.,24.0
1979-07-01 01:38:20.890 ,2,0,0.,24.0,0.,24.0
1979-07-01 01:38:44.890 ,3,1,0.,24.0,0.,24.0
1979-07-01 01:39:08.890 ,3,0,0.,24.0,0.,24.0
1979-07-01 01:39:32.890 ,4,1,0.,24.0,0.,24.0
1979-07-01 01:39:56.890 ,4,0,0.,24.0,0.,24.0
1979-07-01 01:40:20.890 ,5,1,0.,24.0,0.,24.0
1979-07-01 01:40:44.890 ,5,0,0.,24.0,0.,24.0
1979-07-01 01:41:08.890 ,6,1,0.,24.0,0.,24.0
1979-07-01 01:41:32.890 ,6,0,0.,24.0,0.,24.0
1979-07-01 01:41:56.890 ,7,1,0.,24.0,0.,24.0
1979-07-01 01:42:20.890 ,7,0,0.,24.0,0.,24.0
1979-07-01 01:42:44.890 ,7,1,0.,24.0,0.,24.0
1979-07-01 01:43:08.890 ,7,0,0.,24.0,0.,24.0
1979-07-01 01:43:32.890 ,6,1,0.,24.0,0.,24.0
1979-07-01 01:43:56.890 ,6,0,0.,24.0,0.,24.0
1979-07-01 01:44:20.890 ,5,1,0.,24.0,0.,24.0
1979-07-01 01:44:44.890 ,5,0,0.,24.0,0.,24.0
1979-07-01 01:45:08.890 ,4,1,0.,24.0,0.,24.0
1979-07-01 01:45:32.890 ,4,0,0.,24.0,0.,24.0
1979-07-01 01:45:56.890 ,3,1,0.,24.0,0.,24.0
1979-07-01 01:46:20.890 ,3,0,0.,24.0,0.,24.0
1979-07-01 01:46:44.890 ,2,1,0.,24.0,0.,24.0
1979-07-01 01:47:08.890 ,2,0,0.,24.0,0.,24.0
1979-07-01 01:47:32.890 ,1,1,0.,24.0,0.,24.0
1979-07-01 01:47:56.890 ,1,0,0.,24.0,0.,24.0
1979-07-01 01:48:20.890 ,0,1,0.,24.0,0.,24.0
1979-07-01 01:48:44.890 ,0,0,0.,24.0,0.,24.0
1979-07-01 01:49:08.890 ,0,1,0.,24.0,0.,24.0
1979-07-01 01:49:32.890 ,0,0,0.,24.0,0.,24.0
1979-07-01 01:49:56.890 ,1,1,0.,24.0,0.,24.0
1979-07-01 01:50:20.890 ,1,0,0.,24.0,0.,24.0
1979-07-01 01:50:44.890 ,2,1,0.,24.0,0.,24.0
1979-07-01 01:51:08.890 ,2,0,0.,24.0,0.,24.0
1979-07-01 01:51:32.890 ,3,1,0.,24.0,0.,24.0
1979-07-01 01:51:56.890 ,3,0,0.,24.0,0.,24.0
1979-07-01 01:52:20.890 ,4,1,0.,24.0,0.,24.0
1979-07-01 01:52:44.890 ,4,0,0.,24.0,0.,24.0
1979-07-01 01:53:08.890 ,5,1,0.,24.0,0.,24.0
1979-07-01 01:53:32.890 ,5,0,0.,24.0,0.,24.0
1979-07-01 01:53:56.890 ,6,1,0.,24.0,0.,24.0
1979-07-01 01:54:20.890 ,6,0,0.,24.0,0.,24.0
1979-07-01 01:54:44.890 ,7,0,0.,24.0,0.,24.0
1979-07-01 01:55:08.890 ,7,0,0.,24.0,0.,24.0
1979-07-01 01:55:32.890 ,3,1,0.,24.0,0.,24.0
1979-07-01 01:55:56.890 ,0,1,0.,24.0,0.,24.0
1979-07-01 01:56:20.890 ,4,1,0.,24.0,0.,24.0
1979-07-01 01:56:44.890 ,7,1,0.,24.0,0.,24.0
1979-07-01 01:57:08.890 ,3,1,0.,24.0,0.,24.0
1979-07-01 01:57:32.890 ,0,1,0.,24.0,0.,24.0
1979-07-01 01:57:56.890 ,4,1,0.,24.0,0.,24.0
1979-07-01 01:58:20.890 ,7,1,0.,24.0,0.,24.0
1979-07-01 01:58:44.890 ,3,1,0.,24.0,0.,24.0
1979-07-01 01:59:08.890 ,0,1,0.,24.0,0.,24.0
1979-07-01 01:59:32.890 ,4,1,0.,24.0,0.,24.0
1979-07-01 01:59:56.890 ,7,1,0.,24.0,0.,24.0
1979-07-01 02:00:20.890 ,3,1,0.,24.0,0.,24.0
1979-07-01 02:00:44.890 ,0,1,0.,24.0,0.,24.0
1979-07-01 02:01:08.890 ,4,1,0.,24.0,0.,24.0
1979-07-01 02:01:32.890 ,7,1,0.,24.0,0.,24.0
1979-07-01 02:01:56.890 ,3,1,0.,24.0,0.,24.0
1979-07-01 02:02:20.890 ,0,1,0.,24.0,0.,24.0
1979-07-01 02:02:44.890 ,4,1,0.,24.0,0.,24.0
1979-07-01 02:03:08.890 ,7,1,0.,24.0,0.,24.0
1979-07-01 02:03:32.890 ,3,1,0.,24.0,0.,24.0
1979-07-01 02:03:56.890 ,0,1,0.,24.0,0.,24.0
1979-07-01 02:04:20.890 ,4,1,0.,24.0,0.,24.0
1979-07-01 02:04:44.890 ,7,1,0.,24.0,0.,24.0
1979-07-01 02:05:08.890 ,3,1,0.,24.0,0.,24.0
1979-07-01 02:05:32.890 ,0,1,0.,24.0,0.,24.0
1979-07-01 02:05:56.890 ,0,0,0.,24.0,0.,24.0
1979-07-01 02:06:20.890 ,0,0,0.,24.0,0.,24.0
1979-07-01 02:06:44.890 ,5,1,0.,24.0,0.,24.0
1979-07-01 02:07:08.890 ,5,0,0.,24.0,0.,24.0
1979-07-01 02:07:32.890 ,4,1,0.,24.0,0.,24.0
1979-07-01 02:07:56.890 ,4,0,0.,24.0,0.,24.0
1979-07-01 02:08:20.890 ,3,1,0.,24.0,0.,24.0
1979-07-01 02:08:44.890 ,3,0,0.,24.0,0.,24.0
1979-07-01 02:09:08.890 ,2,1,0.,24.0,0.,24.0
1979-07-01 02:09:32.890 ,2,0,0.,24.0,0.,24.0
1979-07-01 02:09:56.890 ,1,1,0.,24.0,0.,24.0
1979-07-01 02:10:20.890 ,1,0,0.,24.0,0.,24.0
1979-07-01 02:10:44.890 ,0,1,0.,24.0,0.,24.0
1979-07-01 02:11:08.890 ,0,0,0.,24.0,0.,24.0
1979-07-01 02:11:32.890 ,0,1,0.,24.0,0.,24.0
1979-07-01 02:11:56.890 ,0,0,0.,24.0,0.,24.0
1979-07-01 02:12:20.890 ,1,1,0.,24.0,0.,24.0
1979-07-01 02:12:44.890 ,1,0,0.,24.0,0.,24.0
1979-07-01 02:13:08.890 ,2,1,0.,24.0,0.,24.0
1979-07-01 02:13:32.890 ,2,0,0.,24.0,0.,24.0
1979-07-01 02:13:56.890 ,3,1,0.,24.0,0.,24.0
1979-07-01 02:14:20.890 ,3,0,0.,24.0,0.,24.0
1979-07-01 02:14:44.890 ,4,1,0.,24.0,0.,24.0
1979-07-01 02:15:08.890 ,4,0,0.,24.0,0.,24.0
1979-07-01 02:15:32.890 ,5,1,0.,24.0,0.,24.0
1979-07-01 02:15:56.890 ,5,0,0.,24.0,0.,24.0
1979-07-01 02:16:20.890 ,6,1,0.,24.0,0.,24.0
1979-07-01 02:16:44.890 ,6,0,0.,24.0,0.,24.0
1979-07-01 02:17:08.890 ,7,1,0.,24.0,0.,24.0
1979-07-01 02:17:32.890 ,7,0,0.,24.0,0.,24.0
1979-07-01 02:17:56.890 ,7,1,0.,24.0,0.,24.0
1979-07-01 02:18:20.890 ,7,0,0.,24.0,0.,24.0
1979-07-01 02:18:44.890 ,6,1,0.,24.0,0.,24.0
1979-07-01 02:19:08.890 ,6,0,0.,24.0,0.,24.0
1979-07-01 02:19:32.890 ,5,1,0.,24.0,0.,24.0
1979-07-01 02:19:56.890 ,5,0,0.,24.0,0.,24.0
1979-07-01 02:20:20.890 ,4,1,0.,24.0,0.,24.0
1979-07-01 02:20:44.890 ,4,0,0.,24.0,0.,24.0
1979-07-01 02:21:08.890 ,3,1,0.,24.0,0.,24.0
1979-07-01 02:21:32.890 ,3,0,0.,24.0,0.,24.0
1979-07-01 02:21:56.890 ,2,1,0.,24.0,0.,24.0
1979-07-01 02:22:20.890 ,2,0,0.,24.0,0.,24.0
1979-07-01 02:23:32.890 ,0,0,0.,24.0,0.,24.0
1979-07-01 02:23:56.890 ,0,0,0.,24.0,0.,24.0
1979-07-01 02:24:20.890 ,0,1,0.,24.0,0.,24.0
1979-07-01 02:24:44.890 ,0,0,0.,24.0,0.,24.0
1979-07-01 02:25:08.890 ,1,1,0.,24.0,0.,24.0
1979-07-01 02:25:32.890 ,1,0,0.,24.0,0.,24.0
1979-07-01 02:25:56.890 ,2,1,0.,24.0,0.,24.0
1979-07-01 02:26:20.890 ,2,0,0.,24.0,0.,24.0
1979-07-01 02:26:44.890 ,3,1,0.,24.0,0.,24.0
1979-07-01 02:27:08.890 ,3,0,0.,24.0,0.,24.0
1979-07-01 02:27:32.890 ,4,1,0.,24.0,0.,24.0
1979-07-01 02:27:56.890 ,4,0,0.,24.0,0.,24.0
1979-07-01 02:28:20.890 ,5,1,0.,24.0,0.,24.0
1979-07-01 02:28:44.890 ,5,0,0.,24.0,0.,24.0
1979-07-01 02:29:08.890 ,6,1,0.,24.0,0.,24.0
1979-07-01 02:29:32.890 ,6,0,0.,24.0,0.,24.0
1979-07-01 02:29:56.890 ,7,1,0.,24.0,0.,24.0
1979-07-01 02:30:20.890 ,7,0,0.,24.0,0.,24.0
1979-07-01 02:30:44.890 ,7,1,0.,24.0,0.,24.0
1979-07-01 02:31:08.890 ,7,0,0.,24.0,0.,24.0
1979-07-01 02:31:32.890 ,6,1,0.,24.0,0.,24.0
1979-07-01 02:31:56.890 ,6,0,0.,24.0,0.,24.0
1979-07-01 02:32:20.890 ,5,1,0.,24.0,0.,24.0
1979-07-01 02:32:44.890 ,5,0,0.,24.0,0.,24.0
1979-07-01 02:33:08.890 ,4,1,0.,24.0,0.,24.0
1979-07-01 02:33:32.890 ,4,0,0.,24.0,0.,24.0
1979-07-01 02:33:56.890 ,3,1,0.,24.0,0.,24.0
1979-07-01 02:34:20.890 ,3,0,0.,24.0,0.,24.0
1979-07-01 02:34:44.890 ,2,1,0.,24.0,0.,24.0
1979-07-01 02:35:08.890 ,2,0,0.,24.0,0.,24.0
1979-07-01 02:35:32.890 ,1,1,0.,24.0,0.,24.0
1979-07-01 02:35:56.890 ,1,0,0.,24.0,0.,24.0
1979-07-01 02:36:20.890 ,0,1,0.,24.0,0.,24.0
1979-07-01 02:36:44.890 ,0,0,0.,24.0,0.,24.0
1979-07-01 02:37:08.890 ,0,1,0.,24.0,0.,24.0
1979-07-01 02:37:32.890 ,0,0,0.,24.0,0.,24.0
1979-07-01 02:37:56.890 ,1,1,0.,24.0,0.,24.0
1979-07-01 02:38:20.890 ,1,0,0.,24.0,0.,24.0
1979-07-01 02:38:44.890 ,2,1,0.,24.0,0.,24.0
1979-07-01 02:39:08.890 ,2,0,0.,24.0,0.,24.0
1979-07-01 02:39:32.890 ,3,1,0.,24.0,0.,24.0
1979-07-01 02:39:56.890 ,3,0,0.,24.0,0.,24.0
1979-07-01 02:40:20.890 ,4,1,0.,24.0,0.,24.0
1979-07-01 02:40:44.890 ,4,0,0.,24.0,0.,24.0
1979-07-01 02:41:08.890 ,5,1,0.,24.0,0.,24.0
1979-07-01 02:41:32.890 ,5,0,0.,24.0,0.,24.0
1979-07-01 02:41:56.890 ,6,1,0.,24.0,0.,24.0
1979-07-01 02:42:20.890 ,6,0,0.,24.0,0.,24.0
1979-07-01 02:42:44.890 ,7,0,0.,24.0,0.,24.0
1979-07-01 02:43:08.890 ,7,0,0.,24.0,0.,24.0
1979-07-01 02:43:32.890 ,3,1,0.,24.0,0.,24.0
1979-07-01 02:43:56.890 ,0,1,0.,24.0,0.,24.0
1979-07-01 02:44:20.890 ,4,1,0.,24.0,0.,24.0
1979-07-01 02:44:44.890 ,7,1,0.,24.0,0.,24.0
1979-07-01 02:45:08.890 ,3,1,0.,24.0,0.,24.0
1979-07-01 02:45:32.890 ,0,1,0.,24.0,0.,24.0
1979-07-01 02:45:56.890 ,4,1,0.,24.0,0.,24.0
1979-07-01 02:46:20.890 ,7,1,0.,24.0,0.,24.0
1979-07-01 02:46:44.890 ,3,1,0.,24.0,0.,24.0
1979-07-01 02:47:08.890 ,0,1,0.,24.0,0.,24.0
1979-07-01 02:47:32.890 ,4,1,0.,24.0,0.,24.0
1979-07-01 02:47:56.890 ,7,1,0.,24.0,0.,24.0
1979-07-01 02:48:20.890 ,3,1,0.,24.0,0.,24.0
1979-07-01 02:48:44.890 ,0,1,0.,24.0,0.,24.0
1979-07-01 02:49:08.890 ,4,1,0.,24.0,0.,24.0
1979-07-01 02:49:32.890 ,7,1,0.,24.0,0.,24.0
1979-07-01 02:49:56.890 ,3,1,0.,24.0,0.,24.0
1979-07-01 02:50:20.890 ,0,1,0.,24.0,0.,24.0
1979-07-01 02:50:44.890 ,4,1,0.,24.0,0.,24.0
1979-07-01 02:51:08.890 ,7,1,0.,24.0,0.,24.0
1979-07-01 02:51:32.890 ,3,1,0.,24.0,0.,24.0
1979-07-01 02:51:56.890 ,0,1,0.,24.0,0.,24.0
1979-07-01 02:52:20.890 ,4,1,0.,24.0,0.,24.0
1979-07-01 02:52:44.890 ,7,1,0.,24.0,0.,24.0
1979-07-01 02:53:08.890 ,3,1,0.,24.0,0.,24.0
1979-07-01 02:53:32.890 ,0,1,0.,24.0,0.,24.0
1979-07-01 02:53:56.890 ,0,0,0.,24.0,0.,24.0
1979-07-01 02:54:20.890 ,0,0,0.,24.0,0.,24.0
1979-07-01 02:54:44.890 ,5,1,0.,24.0,0.,24.0
1979-07-01 02:55:08.890 ,5,0,0.,24.0,0.,24.0
1979-07-01 02:55:32.890 ,4,1,0.,24.0,0.,24.0
1979-07-01 02:55:56.890 ,4,0,0.,24.0,0.,24.0
1979-07-01 02:56:20.890 ,3,1,0.,24.0,0.,24.0
1979-07-01 02:56:44.890 ,3,0,0.,24.0,0.,24.0
1979-07-01 02:57:08.890 ,2,1,0.,24.0,0.,24.0
1979-07-01 02:57:32.890 ,2,0,0.,24.0,0.,24.0
1979-07-01 02:57:56.890 ,1,1,0.,24.0,0.,24.0
1979-07-01 02:58:20.890 ,1,0,1.,24.0,0.,24.0
1979-07-01 02:58:44.890 ,0,1,0.,24.0,0.,24.0
1979-07-01 02:59:08.890 ,0,0,0.,24.0,0.,24.0
1979-07-01 02:59:32.890 ,0,1,0.,24.0,0.,24.0
1979-07-01 02:59:56.890 ,0,0,0.,24.0,0.,24.0
1979-07-01 03:00:20.890 ,1,1,0.,24.0,0.,24.0
